• Join FlightAware (Why Join?)
  • Login
  • US Flag 
08:27AM EST


 

Airport Tracker/Info


-or-


 

Live Flight TrackerFlight Track Log ✈ N91HT ✈ 30-Apr-2013 ✈ KTEB - KLEX

Flight Track Log - Related Links

Times and Time Zones

All times are in EDT time to prevent confusion due to time zone crossing. See the N91HT flight status page for this flight to view local times or setup timezone preferences in your user account.

Time Position Orientation Groundspeed Altitude Reporting Facility
EDT Latitude Longitude Course Direction KTS MPH feet Rate Location/Type
04:44PM 40.8333 -74.0833 237° Southwest 136 157 1,600  Level New York TRACON
04:45PM 40.8000 -74.1500 237° Southwest 209 241 1,800 750 Climbing New York TRACON
04:46PM 40.8000 -74.2167 270° West 190 219 3,100 1,850 Climbing New York TRACON
04:47PM 40.8000 -74.2833 270° West 167 192 5,500 2,050 Climbing New York TRACON
04:48PM 40.8000 -74.3500 270° West 184 212 7,200 1,600 Climbing New York TRACON
04:49PM 40.8000 -74.4167 270° West 211 243 8,700 1,550 Climbing New York TRACON
04:50PM 40.8167 -74.5000 285° West 206 237 10,300 1,350 Climbing New York TRACON
04:51PM 40.8167 -74.5833 270° West 230 265 11,400 654 Climbing New York TRACON
04:53PM 40.7917 -74.7097 255° West 243 280 12,000 896 Climbing New York Center
04:54PM 40.7661 -74.7878 247° West 243 280 13,700 1,059 Climbing New York Center
04:55PM 40.7425 -74.8686 249° West 243 280 14,100 984 Climbing New York Center
04:56PM 40.7189 -74.9519 250° West 243 280 15,700 908 Climbing New York Center
04:57PM 40.6931 -75.0353 248° West 243 280 15,900 102 Climbing New York Center
04:58PM 40.6586 -75.1206 242° Southwest 259 298 15,900  Level New York Center
04:59PM 40.6264 -75.2033 243° Southwest 270 311 15,900 50 Level New York Center
05:00PM 40.5875 -75.2911 240° Southwest 275 316 16,000 508 Climbing New York Center
05:01PM 40.5489 -75.3731 238° Southwest 280 322 16,900 878 Climbing New York Center
05:02PM 40.5125 -75.4528 239° Southwest 266 306 17,800 750 Climbing New York Center
05:03PM 40.4717 -75.5372 238° Southwest 252 290 18,400 857 Climbing New York Center
05:04PM 40.4494 -75.6231 251° West 252 290 19,500 1,140 Climbing New York Center
05:05PM 40.4214 -75.6972 244° Southwest 247 284 20,700 1,041 Climbing New York Center
05:06PM 40.3806 -75.7706 234° Southwest 247 284 21,600 972 Climbing New York Center
05:08PM 40.3058 -75.9094 235° Southwest 247 284 23,600 1,000 Climbing New York Center
05:09PM 40.2692 -75.9858 238° Southwest 247 284 24,600 900 Climbing New York Center
05:10PM 40.2328 -76.0536 235° Southwest 247 284 25,400 661 Climbing New York Center
05:11PM 40.1939 -76.1294 236° Southwest 247 284 25,900 300 Climbing New York Center
05:12PM 40.1544 -76.2161 239° Southwest 247 284 26,000 49 Climbing New York Center
05:13PM 40.1092 -76.2942 233° Southwest 273 314 26,000  Level New York Center
05:14PM 40.0697 -76.3831 240° Southwest 286 329 26,000  Level New York Center
05:15PM 40.0319 -76.4750 242° Southwest 286 329 26,000  Level New York Center
05:16PM 39.9897 -76.5692 240° Southwest 291 335 26,000  Level New York Center
05:17PM 39.9478 -76.6578 238° Southwest 291 335 26,000  Level New York Center
05:18PM 39.9058 -76.7489 239° Southwest 297 342 26,000 350 Level New York Center
05:19PM 39.8636 -76.8372 238° Southwest 297 342 26,700 848 Climbing New York Center
05:19PM 39.8442 -76.8833 241° Southwest 283 326 27,300 581 Climbing Washington Center
05:20PM 39.8017 -76.9636 235° Southwest 268 308 27,600 347 Climbing Washington Center
05:21PM 39.7611 -77.0464 238° Southwest 273 314 28,000 203 Climbing Washington Center
05:22PM 39.7183 -77.1319 237° Southwest 278 320 28,000  Level Washington Center
05:23PM 39.6797 -77.2200 240° Southwest 283 326 28,000  Level Washington Center
05:24PM 39.6369 -77.3106 238° Southwest 288 331 28,000  Level Washington Center
05:25PM 39.5958 -77.4039 240° Southwest 288 331 28,000  Level Washington Center
05:26PM 39.5550 -77.4944 240° Southwest 288 331 28,000  Level Washington Center
05:27PM 39.5158 -77.5850 241° Southwest 288 331 28,000  Level Washington Center
05:28PM 39.4728 -77.6750 238° Southwest 294 338 28,000  Level Washington Center
05:29PM 39.4272 -77.7678 238° Southwest 294 338 28,000  Level Washington Center
05:30PM 39.3861 -77.8606 240° Southwest 294 338 28,000  Level Washington Center
05:31PM 39.3447 -77.9533 240° Southwest 294 338 28,000  Level Washington Center
05:32PM 39.3033 -78.0458 240° Southwest 294 338 28,000  Level Washington Center
05:33PM 39.2617 -78.1381 240° Southwest 294 338 28,000  Level Washington Center
05:34PM 39.2200 -78.2333 241° Southwest 294 338 28,000  Level Washington Center
05:35PM 39.1825 -78.3283 243° Southwest 299 344 28,000  Level Washington Center
05:36PM 39.1469 -78.4258 245° Southwest 304 350 28,000  Level Washington Center
05:37PM 39.1092 -78.5208 243° Southwest 304 350 28,000 51 Level Washington Center
05:38PM 39.0733 -78.6183 245° Southwest 299 344 28,100  Climbing Washington Center
05:39PM 39.0375 -78.7156 245° Southwest 299 344 28,000 -50 Descending Washington Center
05:40PM 39.0017 -78.8103 244° Southwest 299 344 28,000  Level Washington Center
05:41PM 38.9658 -78.9050 244° Southwest 299 344 28,000  Level Washington Center
05:42PM 38.9256 -79.0017 242° Southwest 299 344 28,000  Level Washington Center
05:43PM 38.8894 -79.0961 244° Southwest 299 344 28,000  Level Washington Center
05:44PM 38.8511 -79.1903 242° Southwest 299 344 28,000  Level Washington Center
05:45PM 38.8231 -79.2900 250° West 299 344 28,000  Level Washington Center
05:46PM 38.8053 -79.3931 258° West 294 338 28,000  Level Washington Center
05:47PM 38.7897 -79.4936 259° West 294 338 28,000  Level Washington Center
05:48PM 38.7694 -79.6017 256° West 307 353 28,000  Level Washington Center
05:49PM 38.7308 -79.6928 242° Southwest 307 353 28,000  Level Washington Center
05:50PM 38.6861 -79.7833 238° Southwest 302 348 28,000  Level Washington Center
05:51PM 38.6475 -79.8742 241° Southwest 302 348 28,000  Level Washington Center
05:52PM 38.6328 -79.9875 261° West 297 342 28,000  Level Washington Center
05:53PM 38.6228 -80.0881 263° West 297 342 28,000  Level Washington Center
05:54PM 38.6128 -80.1911 263° West 297 342 28,000  Level Washington Center
05:57PM 38.5869 -80.4392 262° West 289 333 28,000  Level Indianapolis Center
05:58PM 38.5797 -80.5283 264° West 290 334 28,000  Level Indianapolis Center
05:59PM 38.5708 -80.6314 264° West 292 336 28,000  Level Indianapolis Center
06:00PM 38.5614 -80.7533 264° West 288 331 28,000  Level Indianapolis Center
06:01PM 38.5525 -80.8531 264° West 283 326 28,000 -194 Level Indianapolis Center
06:02PM 38.5403 -80.9550 261° West 288 331 27,600 -339 Descending Indianapolis Center
06:03PM 38.5297 -81.0569 262° West 289 333 27,300 -339 Descending Indianapolis Center
06:04PM 38.5183 -81.1592 262° West 290 334 26,900 -435 Descending Indianapolis Center
06:05PM 38.5061 -81.2622 261° West 292 336 26,400 -435 Descending Indianapolis Center
06:06PM 38.4953 -81.3678 263° West 296 341 26,000 -435 Descending Indianapolis Center
06:07PM 38.4822 -81.4731 261° West 299 344 25,500 -532 Descending Indianapolis Center
06:08PM 38.4669 -81.6003 261° West 300 345 24,900 -581 Descending Indianapolis Center
06:09PM 38.4539 -81.7056 261° West 298 343 24,300 -435 Descending Indianapolis Center
06:10PM 38.4344 -81.8114 257° West 304 350 24,000 -145 Descending Indianapolis Center
06:11PM 38.4181 -81.9150 259° West 298 343 24,000  Level Indianapolis Center
06:12PM 38.4033 -82.0172 260° West 292 336 24,000  Level Indianapolis Center
06:13PM 38.3892 -82.1161 260° West 285 328 24,000  Level Indianapolis Center
06:14PM 38.3747 -82.2156 260° West 285 328 24,000 -97 Level Indianapolis Center
06:15PM 38.3581 -82.3344 260° West 284 327 23,800 -242 Descending Indianapolis Center
06:16PM 38.3458 -82.4358 261° West 288 331 23,500 -387 Descending Indianapolis Center
06:17PM 38.3331 -82.5450 262° West 294 338 23,000 -581 Descending Indianapolis Center
06:18PM 38.3219 -82.6497 262° West 299 344 22,300 -484 Descending Indianapolis Center
06:19PM 38.3097 -82.7550 262° West 300 345 22,000 -387 Descending Indianapolis Center
06:20PM 38.2969 -82.8564 261° West 293 337 21,500 -629 Descending Indianapolis Center
06:21PM 38.2817 -82.9606 259° West 298 343 20,700 -871 Descending Indianapolis Center
06:22PM 38.2633 -83.0836 259° West 303 349 19,700 -871 Descending Indianapolis Center
06:23PM 38.2483 -83.1858 259° West 298 343 18,900 -774 Descending Indianapolis Center
06:25PM 38.2347 -83.2894 261° West 297 342 18,100 -726 Descending Indianapolis Center
06:26PM 38.2192 -83.3911 259° West 294 338 17,400 -774 Descending Indianapolis Center
06:27PM 38.2014 -83.4925 257° West 293 337 16,500 -919 Descending Indianapolis Center
06:28PM 38.1819 -83.6108 258° West 292 336 15,500 -912 Descending Indianapolis Center
06:29PM 38.1664 -83.7119 259° West 291 335 14,600 -919 Descending Indianapolis Center
06:30PM 38.1506 -83.8136 259° West 294 338 13,600 -927 Descending Indianapolis Center
06:31PM 38.1361 -83.9158 260° West 294 338 12,700 -919 Descending Indianapolis Center
06:32PM 38.1289 -84.0186 265° West 293 337 11,700 -1,210 Descending Indianapolis Center
06:33PM 38.1281 -84.1350 270° West 286 329 10,200 -1,392 Descending Indianapolis Center
06:34PM 38.1200 -84.2239 263° West 268 308 8,800 -1,440 Descending Indianapolis Center
06:35PM 38.0831 -84.3017 239° Southwest 256 295 7,200 -1,355 Descending Indianapolis Center
06:36PM 38.0461 -84.3769 238° Southwest 254 292 6,000 -1,403 Descending Indianapolis Center
06:37PM 38.0331 -84.4489 257° West 236 272 4,300 -1,452 Descending Indianapolis Center
06:38PM 38.0467 -84.5283 282° West 210 242 3,000 -823 Descending Indianapolis Center
06:39PM 38.0586 -84.5814 286° West 203 234 2,600 -387 Descending Indianapolis Center
06:41PM 38.0333 -84.6000 90° East  Level FlightAware Approximate
06:48PM 38.0368 -84.6086 90° East  Level Estimated